Wind_Speed
26 24 22 20 19 17 14 13 12 10 9 8 6 5 4 2 2 3 4 5 4 3 3 3 4 6 9 8 7 7 6 6 5 5 6 9 10 12 12 12 11 11 10 10 11 10 9 8 7 8 9 11 13 15 15 17 17 14 13 13 13 12 11 10 7 5 7 9 8 5 6 8 7 5 5 5 5 6 5 4 3 3 2 1 2
25 23 21 20 19 17 15 13 12 11 10 8 6 6 5 3 2 3 4 4 2 3 4 3 5 8 10 8 8 7 5 5 4 4 6 9 11 12 13 13 13 12 12 12 12 11 10 9 9 9 11 11 13 15 15 16 16 14 14 14 15 15 15 14 11 8 8 8 8 7 8 10 8 7 6 6 5 6 5 4 4 5 4 4 3
25 23 20 19 19 18 15 14 13 11 10 8 7 6 5 4 3 3 3 3 4 4 4 4 6 9 10 9 8 8 7 7 6 5 7 8 10 12 13 13 13 13 13 13 13 13 12 12 11 11 13 13 13 15 15 14 13 12 12 12 13 16 17 17 14 10 9 9 9 8 10 10 9 7 8 7 6 6 5 6 7 7 7 6 5
25 24 22 20 20 19 16 15 14 11 9 8 6 6 6 4 3 3 4 4 5 5 5 5 6 9 10 9 8 8 8 8 7 7 8 8 9 11 13 13 12 12 12 12 13 14 15 15 14 13 14 13 13 13 12 12 11 11 11 11 12 13 16 18 16 11 10 10 10 9 10 10 8 9 9 9 8 7 6 6 8 8 8 8 8
24 24 21 20 19 18 16 15 14 11 9 7 6 7 7 5 4 4 6 6 7 7 7 7 6 6 8 8 8 7 7 8 9 9 10 10 11 12 13 12 11 10 10 10 10 12 15 17 16 16 15 15 14 14 13 13 14 13 12 13 12 12 15 18 16 12 11 11 10 10 11 11 10 10 9 8 9 9 8 7 8 9 9 9 10
25 23 20 19 18 17 15 14 14 12 10 8 7 8 7 5 4 5 7 7 7 8 8 7 7 5 4 6 7 7 7 8 10 10 11 11 12 13 13 12 12 11 10 10 9 10 12 14 16 17 17 17 16 16 15 15 15 14 13 12 12 13 15 16 15 13 12 11 10 10 11 11 11 11 10 9 10 11 10 10 10 10 11 11 12
22 23 22 21 19 17 17 17 16 14 12 10 9 9 7 5 5 7 9 8 8 7 7 5 5 4 3 3 5 7 8 9 11 11 12 12 13 13 13 13 12 11 11 11 10 10 9 11 13 14 15 15 15 15 14 14 15 15 14 13 13 14 15 15 14 15 14 12 12 12 11 11 12 12 11 11 12 12 13 13 13 13 13 13 13
18 22 21 20 19 18 19 19 17 15 13 11 11 9 7 6 7 8 10 9 8 6 6 5 4 4 3 2 3 4 6 9 11 12 13 13 13 13 13 12 12 12 12 12 12 11 10 10 11 12 13 13 13 14 15 15 16 15 15 15 16 16 16 16 15 17 17 15 15 14 13 14 14 14 13 14 14 15 14 15 15 15 14 14 15
18 20 20 19 18 18 18 16 14 14 14 13 12 10 8 8 9 11 11 11 8 7 6 6 5 5 4 4 3 3 3 5 8 11 13 14 13 13 13 13 13 13 13 14 14 13 12 12 12 13 14 14 15 15 16 17 17 17 17 17 18 19 19 19 18 18 18 18 18 17 16 17 17 17 16 16 16 15 15 16 16 16 16 17 17
18 20 21 19 17 18 16 14 14 16 16 15 13 12 10 9 10 12 12 12 10 9 8 7 6 6 6 6 6 5 3 2 4 7 10 12 13 14 14 14 14 14 14 14 15 15 15 15 15 15 16 17 17 17 18 19 20 20 19 19 19 21 21 22 22 21 20 20 20 20 19 20 20 19 18 18 17 16 17 18 18 18 18 19 20
17 18 19 17 17 18 17 16 16 16 16 15 14 14 13 12 11 11 12 12 11 11 10 8 8 8 7 7 7 6 5 3 3 4 6 8 11 13 14 15 16 16 17 17 17 17 17 17 17 17 18 18 18 18 19 19 20 21 22 21 20 20 21 22 22 23 22 22 21 21 22 21 21 21 20 19 19 19 18 18 19 20 21 22 22
17 18 17 17 19 20 19 19 17 16 16 16 16 15 15 15 14 12 12 12 13 12 10 11 11 11 10 9 9 8 7 6 7 7 7 8 9 10 12 14 16 18 19 20 20 20 20 20 20 20 19 19 18 19 19 19 19 20 21 22 21 21 21 22 22 23 23 24 24 23 23 23 22 22 22 21 20 20 19 18 19 20 21 22 22
17 18 17 17 18 18 19 19 18 17 18 18 18 17 17 16 16 16 14 13 14 13 10 11 13 15 14 13 13 13 12 12 12 12 12 12 13 13 13 14 14 15 17 18 20 21 22 23 23 22 21 21 20 20 20 21 21 21 21 22 23 23 23 23 23 24 24 25 26 26 26 25 24 24 23 22 22 21 21 20 19 20 21 22 22
19 18 18 17 16 15 15 15 15 16 16 16 16 17 16 16 16 16 15 14 14 14 12 13 15 17 17 17 16 16 16 16 15 15 15 15 16 17 18 18 19 18 17 18 18 20 21 22 23 23 22 22 22 22 23 24 24 24 24 25 25 25 25 25 25 26 26 26 27 27 27 27 26 25 24 23 23 23 22 20 19 20 21 22 24
22 21 20 20 19 17 16 14 15 15 14 13 14 15 15 15 14 14 14 15 15 16 15 16 17 18 19 19 19 18 17 17 17 16 17 16 17 18 19 21 22 23 23 23 22 22 22 22 23 23 24 24 24 24 25 27 28 28 29 29 29 28 28 27 28 28 28 28 28 27 27 26 26 25 25 24 23 23 21 20 19 20 22 23 24
22 21 21 20 20 19 17 16 17 17 16 15 15 14 13 13 13 14 15 15 16 16 17 17 18 18 20 21 21 21 20 20 19 19 19 18 19 19 20 21 22 24 25 26 27 27 27 27 27 27 26 26 26 27 28 29 31 32 33 33 33 33 32 31 32 31 29 28 29 28 26 25 24 25 25 25 24 23 22 21 21 22 23 23 23
19 17 16 15 14 14 13 13 13 12 12 11 11 12 12 11 12 13 14 15 15 15 16 17 17 18 19 21 23 24 24 24 25 25 24 23 23 22 22 23 24 25 26 27 28 30 31 31 31 32 31 31 30 31 31 32 33 34 36 36 35 34 34 34 36 35 32 30 29 26 25 24 23 24 25 24 24 23 22 22 23 23 21 20 19
12 11 11 9 7 5 5 5 5 4 5 5 5 7 9 10 11 13 13 14 14 15 15 15 16 17 17 18 20 21 22 23 24 26 27 28 27 26 25 24 25 27 28 29 29 30 31 32 34 35 36 36 34 34 35 35 36 37 38 37 35 33 34 35 35 34 33 31 28 25 24 25 25 26 26 25 24 24 24 23 22 20 18 16 16
5 5 6 6 4 3 2 1 3 4 5 6 6 5 5 6 9 11 13 14 14 15 16 16 16 17 17 18 19 20 21 21 22 24 25 27 28 29 28 27 26 27 29 30 31 30 30 31 32 34 37 37 36 35 36 37 37 37 37 36 35 34 35 34 32 30 28 27 25 25 25 26 27 28 26 25 24 23 22 20 18 16 15 14 14
2 2 4 5 5 6 6 4 4 5 6 8 9 9 10 11 11 12 14 15 16 17 18 19 19 20 21 21 22 23 24 24 24 25 25 25 26 28 28 28 28 27 27 29 30 30 29 29 30 31 34 35 35 35 36 37 38 38 37 36 35 34 34 32 29 26 24 24 25 26 26 26 26 26 24 23 22 20 18 16 15 14 14 13 14
3 3 5 7 8 9 11 10 10 9 10 10 11 11 13 14 15 16 17 18 19 20 21 22 23 24 24 25 25 25 26 26 27 27 27 27 27 27 28 28 28 28 28 28 28 29 28 28 28 28 29 31 33 34 35 35 36 38 37 35 33 31 29 28 27 25 25 25 25 24 25 25 24 22 21 20 18 16 15 14 14 13 13 13 13
7 7 7 8 9 10 11 12 13 13 14 15 15 15 16 16 17 18 18 19 20 21 22 23 24 25 25 26 26 26 27 27 27 27 28 28 28 28 29 29 28 29 30 31 31 30 29 28 28 28 28 29 31 32 33 33 33 35 35 33 31 30 29 29 28 27 25 24 23 23 24 24 22 21 19 17 14 13 13 13 12 12 12 13 14
10 10 11 11 11 12 12 13 14 14 15 16 17 17 18 18 18 19 19 20 21 21 22 23 24 25 26 26 26 27 27 28 28 28 29 29 29 29 30 31 30 30 32 34 34 34 32 31 30 29 28 28 30 31 32 32 31 32 32 31 30 31 31 30 29 28 25 24 25 26 24 23 22 19 17 15 13 12 12 12 12 12 13 14 16
12 13 15 15 15 15 15 15 15 16 16 17 17 18 18 19 19 20 20 21 22 23 24 24 26 27 28 28 28 28 28 27 28 28 28 29 30 30 31 32 32 32 34 36 36 36 35 35 33 30 28 27 28 30 30 30 30 30 30 31 32 34 34 31 28 27 27 28 28 27 24 22 20 17 15 13 12 11 11 11 11 13 14 16 18
14 16 16 17 17 17 17 17 17 17 18 18 18 18 19 19 19 20 20 21 22 23 24 25 26 27 29 30 30 30 29 29 28 28 28 28 29 30 30 31 32 33 34 36 37 37 36 35 34 32 30 28 28 29 30 30 29 28 28 30 32 33 34 31 28 28 29 30 28 26 23 20 17 15 13 12 11 10 10 10 12 14 16 18 19
16 17 16 16 16 16 16 17 17 17 17 18 18 18 18 19 19 19 20 21 22 23 24 25 27 28 29 31 32 32 31 30 30 29 29 29 29 29 30 31 31 32 33 35 36 37 37 37 35 34 32 30 29 30 30 30 29 28 27 28 29 30 30 29 28 30 30 28 26 24 21 19 17 15 13 12 10 9 10 11 13 15 17 19 20
16 16 16 17 17 17 17 17 17 17 17 17 17 17 17 18 19 19 20 22 23 24 25 26 28 29 31 32 33 33 33 32 30 30 29 29 29 27 28 30 30 31 32 34 35 36 36 37 37 37 35 33 31 30 30 30 28 26 26 26 27 26 26 27 29 29 27 25 24 22 20 18 16 15 13 11 10 10 12 13 15 16 17 18 18
15 16 17 18 19 19 19 19 18 18 18 18 18 18 18 19 20 20 21 23 25 26 27 28 29 30 32 33 35 35 35 33 31 30 30 30 30 28 26 26 26 27 29 31 32 33 34 34 35 36 37 35 33 31 30 30 28 25 24 25 24 24 25 27 28 27 26 25 23 21 19 17 16 14 13 11 10 11 12 14 15 15 16 16 16
15 17 18 20 20 20 20 19 18 17 17 18 18 18 19 20 21 21 21 22 24 26 28 30 31 31 33 34 34 35 36 34 32 30 29 29 29 30 28 25 24 24 25 26 28 30 31 31 32 33 34 34 33 32 31 31 29 26 24 24 25 26 27 29 29 28 25 23 21 20 19 17 15 13 12 10 10 11 12 13 14 15 15 16 15
16 17 18 20 20 20 20 19 18 18 19 19 19 19 19 18 19 20 21 21 22 24 26 28 29 30 32 32 31 32 34 34 32 30 29 28 29 30 30 27 24 23 23 24 25 26 27 27 28 29 30 32 33 32 32 33 32 30 28 26 27 28 30 31 30 28 24 21 19 19 17 15 13 11 11 10 10 11 12 13 13 14 14 14 14
16 16 18 20 21 21 21 20 20 20 20 21 21 21 20 18 16 17 18 19 19 20 21 23 24 25 27 28 29 29 30 30 29 28 27 27 28 29 28 24 21 21 21 22 23 25 24 23 22 22 23 27 30 31 31 33 33 32 30 28 29 31 33 32 29 26 23 21 20 17 14 12 11 11 10 10 10 11 11 12 12 12 13 13 13
16 17 18 20 21 21 21 21 22 22 23 23 22 20 20 19 17 15 16 16 16 16 16 17 18 19 21 23 26 27 28 28 27 27 26 25 25 24 23 21 20 21 21 21 22 23 22 20 19 18 18 21 25 29 32 33 33 33 33 34 35 36 34 31 28 26 24 21 19 16 13 12 11 10 9 9 9 9 9 10 10 11 11 12 13
16 17 18 19 20 20 21 21 22 23 24 24 21 18 18 20 20 19 17 15 13 11 11 12 15 18 20 21 23 26 27 27 27 27 25 23 22 20 20 20 21 21 21 20 20 21 19 18 17 16 15 17 22 29 32 32 32 34 36 37 37 35 32 29 27 25 21 18 16 15 12 11 9 8 8 8 8 8 9 9 10 11 11 12 13
16 16 16 18 19 21 22 22 22 23 23 21 18 16 16 18 21 22 20 16 12 9 8 9 12 16 18 20 21 23 25 25 25 25 23 21 20 19 19 19 20 20 20 20 19 18 18 16 15 14 14 16 20 26 30 30 28 27 28 29 29 29 28 26 24 22 20 18 16 14 12 10 9 8 8 8 8 9 9 9 9 10 12 12 11
16 15 15 17 20 21 20 20 21 21 20 16 14 14 14 15 17 19 18 16 15 15 13 12 13 15 17 18 19 19 20 21 21 21 20 19 19 19 18 18 19 20 20 20 19 18 16 14 12 13 14 15 17 22 26 27 26 24 23 24 25 25 24 22 21 20 19 17 15 13 11 10 8 7 7 8 8 8 8 8 9 10 11 10 9
15 15 14 16 20 20 17 16 17 18 18 15 12 11 11 13 15 15 14 14 18 20 20 18 16 15 14 17 19 19 19 20 20 20 19 18 18 19 19 19 21 22 22 21 21 19 15 12 10 11 13 15 17 20 23 25 27 27 26 26 25 23 21 21 21 20 17 14 13 11 8 6 6 6 6 7 7 7 7 8 9 9 9 8 7
14 14 14 17 20 19 15 13 15 17 18 16 12 10 11 12 14 15 16 17 19 20 20 19 18 15 14 17 19 18 18 18 18 18 18 18 19 19 20 21 22 23 22 21 19 17 13 10 9 10 12 15 18 20 21 23 26 28 28 27 25 23 22 21 19 16 14 11 9 7 4 4 5 5 5 6 6 7 7 8 8 7 5 5 6
13 14 14 17 19 17 14 13 15 16 16 16 13 11 11 13 14 15 16 17 18 18 18 18 18 17 18 20 21 18 15 14 14 14 14 14 15 16 16 16 16 17 17 16 15 13 10 8 10 12 13 13 16 19 22 25 27 28 27 25 24 23 21 19 16 13 11 8 5 3 3 4 4 4 5 5 5 7 7 6 5 3 2 4 6
13 13 15 17 18 16 13 13 15 15 15 14 12 10 11 13 14 14 14 15 16 16 16 15 15 15 17 20 20 18 16 12 10 9 7 7 8 9 10 9 9 10 12 12 11 9 7 8 11 13 13 12 15 20 24 26 27 26 24 24 23 20 18 16 14 12 9 6 4 3 4 4 5 5 4 4 5 6 6 3 2 2 2 3 4
13 14 15 17 17 15 13 13 14 14 14 12 10 9 10 12 12 13 14 15 14 13 13 14 14 15 16 18 18 16 14 11 9 8 7 7 9 9 7 5 5 6 7 7 7 6 7 8 11 13 13 14 18 23 25 25 24 23 22 21 20 18 15 14 12 10 8 5 4 4 5 5 5 4 4 4 6 6 4 2 2 2 2 2 4
13 13 16 17 15 14 13 13 12 12 11 11 10 8 9 10 12 14 15 15 13 11 11 13 14 14 15 16 15 13 10 9 9 10 10 10 11 11 10 9 8 9 9 7 3 4 6 7 9 11 13 17 22 26 27 25 23 21 20 19 17 15 13 12 10 8 6 5 5 6 5 5 4 4 4 5 5 4 3 3 2 1 3 3 5
13 14 15 16 14 13 13 13 12 9 8 9 9 8 8 11 13 15 16 17 16 12 10 10 12 13 14 15 14 11 8 8 8 9 9 10 11 11 11 11 11 12 13 11 8 4 2 5 8 10 14 19 24 27 27 25 22 20 19 17 14 11 10 9 9 8 7 7 7 6 4 4 3 4 5 5 5 4 3 2 1 3 4 3 5
12 13 15 14 13 12 13 14 13 10 7 7 8 8 8 11 14 16 16 18 17 14 10 11 13 14 14 14 13 11 8 7 7 7 8 10 11 10 9 10 11 12 12 12 10 6 3 2 5 8 11 16 21 23 23 22 20 18 16 13 11 10 10 9 9 9 8 7 5 4 3 3 4 4 5 5 5 3 0 3 5 4 2 3 4
11 12 14 13 11 11 12 14 13 11 9 7 7 8 9 11 14 15 16 16 15 12 11 13 14 14 15 15 15 14 13 11 9 8 8 9 9 8 6 6 8 8 8 8 7 4 3 6 10 13 13 14 16 18 19 18 16 14 12 10 10 10 9 9 8 7 5 4 3 2 2 3 4 5 6 6 4 2 3 5 4 1 2 2 4
9 12 13 12 11 11 12 13 14 13 10 7 5 6 8 10 13 15 17 15 11 10 13 14 14 15 16 16 17 19 19 17 14 11 10 9 8 6 3 2 3 4 3 3 4 5 8 11 14 15 15 14 13 12 13 13 12 11 10 9 8 7 7 7 6 5 3 3 3 3 4 4 5 6 6 5 4 3 4 4 3 1 1 3 5
8 11 12 12 11 11 12 13 14 13 8 5 3 4 7 9 12 16 17 13 8 10 13 14 14 15 16 17 18 19 19 18 16 14 12 10 8 6 3 1 1 3 2 2 2 3 8 12 13 12 12 12 13 13 14 14 14 13 12 10 7 6 6 6 5 5 5 6 6 5 5 4 5 6 6 5 5 4 2 1 1 1 2 4 6
8 10 11 11 11 12 12 13 12 8 4 1 2 4 6 9 12 15 15 9 8 11 13 13 13 14 15 16 17 18 18 18 17 16 14 13 11 9 7 4 2 3 3 2 2 4 6 9 10 10 11 12 13 13 13 12 11 11 11 10 8 6 6 6 6 6 7 7 6 5 4 5 6 6 5 5 4 3 1 2 3 4 5 4 6
7 8 10 11 11 11 13 13 10 5 4 3 2 4 7 8 11 13 11 6 7 10 12 12 13 14 14 15 16 17 17 17 17 16 16 16 16 14 10 6 3 1 2 5 6 6 7 10 11 11 12 11 11 10 9 8 9 10 10 10 8 7 6 6 6 6 6 5 5 5 5 5 6 5 5 6 5 3 2 3 5 9 9 7 6
5 7 9 10 9 9 11 12 10 5 4 3 2 4 6 7 10 11 8 4 8 10 11 11 12 12 13 13 13 14 14 15 15 15 16 18 18 16 13 10 8 8 8 10 11 11 11 12 11 11 10 10 9 8 7 7 7 7 7 6 6 5 5 5 5 4 4 4 5 5 5 6 6 6 7 7 6 2 2 5 8 11 11 9 8
5 6 8 10 9 8 9 10 9 7 3 2 2 3 5 7 9 8 4 6 9 11 10 9 10 11 11 11 11 12 13 13 14 15 16 16 16 16 15 13 12 11 11 11 11 11 11 11 10 9 9 8 7 6 5 5 5 4 4 3 4 5 6 6 6 6 6 6 7 7 7 7 7 7 7 6 4 1 3 6 8 9 11 11 9
6 6 8 9 10 10 9 8 8 7 4 2 2 3 5 7 6 3 6 8 10 9 8 8 9 10 10 11 11 12 13 13 13 14 15 15 15 14 14 13 13 12 12 11 11 11 11 10 10 9 8 8 7 7 7 7 6 5 5 6 7 8 9 9 9 9 9 9 9 8 7 6 6 6 5 4 2 1 3 4 5 6 8 10 9
Wind_Direction
182 179 177 175 171 170 171 171 169 168 168 174 186 194 199 214 242 261 279 284 270 221 198 200 192 182 181 180 176 170 163 151 140 150 172 176 174 177 178 178 182 180 174 172 171 178 192 193 180 173 177 180 183 190 197 197 201 211 220 225 225 228 236 240 243 235 211 197 192 196 197 191 188 181 163 153 165 173 167 163 186 230 258 305 345
182 179 177 175 169 166 170 173 173 172 173 180 188 193 200 212 236 268 270 257 210 165 171 179 180 184 186 186 185 188 192 190 181 173 181 186 184 185 187 187 190 192 189 188 185 185 192 197 191 174 171 179 183 186 191 195 201 212 220 224 227 229 234 236 239 244 238 219 206 205 203 194 189 188 178 167 169 178 183 197 224 254 279 292 302
181 178 175 174 171 168 170 174 178 179 180 187 191 190 199 209 222 251 239 200 157 146 164 184 185 183 186 195 200 204 213 218 217 205 191 192 193 193 195 196 199 203 204 204 202 199 197 199 198 184 174 177 180 180 183 191 199 208 213 218 224 230 234 236 237 246 248 234 223 217 207 200 193 185 183 187 193 199 206 221 238 259 279 283 278
180 179 178 176 175 175 173 175 183 189 191 195 196 189 192 203 209 202 184 168 150 145 151 166 179 181 183 193 200 204 214 217 217 212 199 197 199 196 196 198 202 208 214 214 211 207 202 200 199 195 188 187 189 191 198 209 218 224 225 226 228 230 234 234 233 239 244 238 234 225 209 203 196 188 190 201 213 223 231 238 249 265 274 269 263
180 177 180 180 177 178 179 180 186 196 207 210 204 189 183 193 202 183 171 162 150 143 137 131 140 166 186 197 202 204 209 209 206 204 200 198 198 193 191 191 194 201 209 211 208 203 200 201 203 202 202 206 212 219 228 237 241 240 237 236 232 224 224 227 230 233 236 237 238 225 208 201 198 199 205 215 226 234 240 248 259 267 265 260 262
190 185 190 192 185 179 183 192 193 199 215 217 200 187 181 186 197 181 172 164 151 144 137 125 115 119 165 198 205 202 199 197 197 197 195 193 190 188 184 183 186 191 195 197 196 194 195 202 209 212 216 222 228 235 241 244 245 244 241 234 224 213 214 223 231 233 232 232 232 228 220 210 206 210 218 226 235 242 247 254 261 264 263 263 265
189 188 192 196 195 187 188 199 201 201 213 210 188 179 177 184 193 185 176 167 157 154 153 143 129 119 123 161 185 190 190 191 191 189 188 187 186 186 184 183 187 188 187 188 189 188 189 198 209 218 224 230 235 240 243 246 247 247 244 237 226 218 218 224 230 233 235 231 223 227 232 223 217 219 225 230 236 241 246 252 258 261 262 264 268
181 185 190 198 205 199 196 202 202 200 204 191 173 171 178 186 188 186 181 172 165 171 178 176 173 169 162 151 157 172 185 194 195 191 187 187 190 193 192 190 190 190 190 192 195 197 197 200 207 215 223 230 236 241 246 251 252 249 246 243 240 236 234 233 231 232 237 237 231 229 229 227 226 226 228 230 235 240 245 251 257 262 263 264 266
181 186 191 195 198 198 199 203 200 193 183 165 157 165 177 184 185 183 183 179 180 196 203 201 200 201 205 207 206 199 190 200 208 207 201 198 199 202 204 204 203 202 201 202 205 209 212 215 218 223 230 235 240 245 250 254 256 252 248 246 245 244 242 242 239 235 234 235 235 233 229 229 230 231 234 237 240 244 248 249 254 259 262 263 263
174 183 190 189 188 192 195 193 187 178 167 158 163 170 169 173 180 181 183 188 198 210 212 208 209 215 221 224 229 237 240 227 225 225 221 217 217 217 218 220 220 221 222 221 220 221 224 228 231 234 240 244 247 251 253 255 256 255 253 251 250 249 246 244 244 242 239 238 239 238 236 236 236 236 238 242 244 248 248 248 250 254 256 258 260
168 174 183 185 184 185 185 183 180 173 167 169 175 174 168 168 177 186 195 204 211 217 221 222 220 221 226 230 235 243 246 241 236 239 237 233 234 234 234 235 236 238 239 239 238 238 239 242 245 246 248 251 254 255 257 258 258 257 256 256 255 253 250 247 246 246 246 246 244 241 242 244 243 241 240 242 245 249 250 250 250 251 253 256 258
164 164 167 170 174 179 183 185 185 181 180 182 180 178 175 174 182 197 209 217 222 223 227 229 226 225 227 232 238 244 248 251 250 252 253 250 248 246 245 245 245 247 249 250 249 249 250 252 254 255 257 259 260 260 260 261 260 259 259 258 256 252 249 249 248 248 249 250 250 249 250 249 246 243 245 246 247 249 252 254 254 252 253 254 256
151 153 155 159 167 176 184 187 186 184 186 186 185 186 185 184 192 202 208 216 223 225 228 226 224 226 229 231 236 241 246 251 254 256 258 259 259 259 256 254 253 254 257 258 258 257 257 257 258 259 261 263 264 264 264 264 263 262 260 260 258 256 253 251 251 250 250 250 251 253 255 255 252 249 251 253 252 252 254 255 255 255 254 254 257
134 132 132 137 144 155 169 179 180 180 185 190 193 194 193 195 201 204 203 206 213 219 222 221 221 225 228 229 232 235 238 243 246 251 254 257 259 261 261 260 259 259 259 260 262 263 263 264 264 264 264 265 266 266 265 265 264 263 263 262 260 259 257 257 257 256 255 254 253 253 254 255 257 258 259 259 258 258 257 255 253 252 253 256 260
128 125 124 125 127 131 138 147 152 153 158 173 186 190 192 196 202 205 204 205 211 216 220 222 223 225 227 228 229 230 232 236 240 245 250 253 256 257 258 259 258 258 258 259 259 260 261 263 264 265 265 265 266 266 266 267 266 265 264 263 262 261 261 260 262 262 263 263 262 261 260 258 258 261 262 261 260 258 254 252 251 251 254 258 264
124 125 126 125 127 130 133 140 145 146 147 152 160 168 177 183 190 198 205 210 214 218 222 226 229 231 233 234 234 234 237 241 244 247 250 254 257 258 258 257 256 255 255 256 257 258 259 259 260 262 264 264 265 266 267 267 265 263 262 261 263 264 263 262 262 262 263 267 268 268 266 263 259 259 259 258 255 251 248 249 251 255 258 262 268
114 119 121 122 129 135 137 139 142 149 154 147 142 153 168 180 187 193 202 208 213 219 225 230 235 238 241 243 244 245 246 248 249 250 252 254 256 259 260 260 258 257 255 255 256 257 258 258 259 260 261 262 264 265 265 265 265 266 266 263 262 264 263 262 262 261 261 265 268 267 265 262 258 254 252 249 246 246 249 252 255 258 261 264 270
93 95 99 102 111 122 136 146 145 154 170 164 152 161 174 186 195 200 207 212 217 223 228 234 239 242 244 246 248 249 249 248 249 249 249 251 252 254 257 260 261 261 261 260 260 260 260 260 260 261 261 260 259 261 263 265 266 269 269 264 262 264 266 264 262 261 259 259 261 262 262 261 257 250 246 243 244 248 252 255 255 258 262 267 271
54 54 55 54 51 47 55 194 231 237 221 230 252 246 225 220 218 217 219 223 226 230 232 235 239 242 245 246 248 249 248 247 247 247 247 249 250 251 252 254 257 259 262 264 266 266 265 264 263 263 263 263 262 262 265 267 267 266 264 262 261 265 267 263 260 259 257 255 257 260 261 258 252 245 241 240 243 247 250 253 256 261 266 271 275
23 336 336 337 326 322 328 317 285 271 260 262 271 269 263 262 255 246 242 240 241 241 241 241 242 244 246 248 248 249 249 246 245 246 247 247 249 250 250 250 251 253 256 260 264 266 267 266 265 264 264 266 268 268 268 269 269 267 264 262 263 265 265 261 257 256 256 259 263 262 256 248 240 235 234 236 240 244 249 256 262 267 271 277 282
20 343 323 320 311 304 305 307 305 300 293 288 286 282 278 276 272 267 262 258 256 255 254 253 253 253 253 254 254 254 252 250 248 247 247 247 248 250 250 250 251 251 251 252 255 258 262 263 264 265 266 268 270 270 269 269 270 270 268 266 265 266 262 256 253 256 262 265 260 250 239 233 228 227 231 235 240 247 255 262 268 273 279 285 290
11 0 345 331 322 313 309 308 308 306 302 298 295 292 290 288 285 282 279 274 271 269 267 267 266 264 264 264 263 262 262 261 258 255 254 253 252 253 254 255 255 255 255 254 253 253 256 258 261 264 267 269 270 271 270 268 266 267 269 269 266 262 256 251 252 260 265 258 243 229 224 223 224 226 231 237 243 252 260 266 272 279 287 292 296
357 349 342 335 327 321 316 313 310 307 306 304 300 298 296 294 292 291 290 288 285 283 281 279 278 276 275 273 272 271 269 268 267 266 264 262 261 259 259 259 259 260 260 261 260 259 258 258 258 260 264 270 271 270 267 266 264 265 268 269 265 257 253 251 254 258 255 240 227 222 220 221 222 225 230 237 245 254 262 269 276 286 293 296 298
345 341 339 336 332 327 323 320 315 311 308 306 303 301 299 298 297 295 294 293 291 290 289 287 286 284 283 281 279 278 276 275 274 272 270 268 267 265 263 263 262 262 262 262 264 264 263 261 259 257 258 265 271 271 267 264 263 263 264 266 263 257 255 255 252 245 235 225 220 219 217 215 219 225 231 237 245 251 258 269 281 289 293 295 298
340 340 338 335 333 330 328 325 321 318 314 310 308 304 301 299 298 296 295 294 293 292 292 290 289 288 287 286 285 284 283 283 283 281 279 274 271 268 267 266 266 265 264 263 264 265 265 263 261 257 256 260 266 268 266 263 261 259 259 260 260 259 260 260 248 230 220 216 213 212 211 213 219 226 230 233 240 247 257 271 282 287 291 295 297
342 342 341 340 337 335 333 329 325 323 320 317 314 310 307 303 300 299 297 296 295 294 293 292 291 290 289 289 289 289 288 288 287 287 286 282 278 273 269 267 268 268 267 267 266 265 265 264 263 261 260 262 265 267 265 263 261 258 255 256 256 255 256 253 237 219 211 210 208 207 210 217 220 221 222 226 234 246 261 273 280 284 289 292 295
346 346 347 346 342 339 336 331 327 324 321 319 316 312 307 303 300 299 299 298 296 295 294 293 293 292 292 292 291 291 290 289 288 287 286 285 284 280 273 268 267 269 269 269 269 268 266 265 265 264 262 262 266 268 265 262 259 253 248 249 250 248 246 238 224 214 210 208 208 209 212 215 214 213 217 223 233 250 263 271 276 281 285 290 295
352 353 353 350 346 341 337 333 328 324 319 317 314 311 308 303 300 299 299 298 297 295 294 294 293 293 293 292 292 292 291 291 291 290 288 287 287 286 282 272 267 267 270 270 271 271 270 268 267 266 263 263 266 268 264 258 252 244 241 243 240 235 230 221 212 209 209 208 208 210 210 208 209 212 217 224 237 253 263 271 278 284 289 294 296
359 356 354 352 347 343 340 338 334 328 323 319 315 312 310 306 302 300 298 296 295 293 292 292 291 291 291 292 293 295 295 296 297 296 294 294 292 293 293 285 273 269 271 274 275 274 273 272 272 271 268 266 268 270 265 256 247 237 234 235 229 219 215 210 205 203 204 205 208 210 208 205 205 210 220 233 247 259 268 276 285 291 293 293 292
360 356 353 351 347 345 343 341 337 333 328 322 317 314 313 312 310 307 303 299 296 293 292 292 292 292 293 294 295 296 296 298 300 299 299 300 299 299 300 294 281 272 273 277 278 276 276 277 278 277 274 270 269 268 262 252 244 235 227 222 217 212 208 203 200 199 200 204 208 207 203 203 208 217 230 243 252 264 274 283 289 291 291 291 292
356 353 350 348 346 345 343 340 336 333 328 324 320 317 315 315 316 315 313 309 303 298 295 294 294 294 294 294 294 294 294 296 299 301 303 304 303 304 303 294 279 269 269 272 273 274 277 280 284 286 282 275 269 260 248 238 234 229 221 212 207 204 200 196 195 196 197 197 197 197 199 207 216 225 235 246 259 271 277 281 285 287 290 294 299
352 349 347 345 344 343 341 338 335 331 328 326 325 325 324 323 324 326 328 327 321 314 306 300 297 294 292 291 291 292 295 297 300 303 304 304 304 306 305 293 277 268 266 267 268 270 274 279 285 292 294 285 268 249 233 224 220 216 210 202 197 195 194 191 191 193 192 190 189 192 198 206 215 226 240 254 266 272 274 280 287 292 296 302 306
347 343 340 340 340 339 337 336 332 330 329 330 331 332 334 334 334 334 335 336 336 331 318 305 297 292 289 289 291 293 296 298 300 302 302 300 299 301 302 294 282 272 267 266 266 268 272 276 281 287 293 288 266 240 222 212 208 204 199 194 189 187 185 184 184 184 184 184 186 190 196 206 220 236 248 260 268 271 277 287 293 298 305 309 312
342 338 335 334 335 336 337 336 331 328 331 333 334 335 337 339 340 338 337 339 344 342 331 318 309 303 300 298 297 298 298 298 298 299 298 295 293 294 297 294 285 273 267 268 271 271 271 271 274 277 281 281 265 241 223 212 206 202 196 188 180 175 174 175 175 175 176 178 183 191 201 213 228 240 251 264 271 272 279 289 296 304 310 312 314
337 334 331 331 334 335 335 333 329 328 332 336 337 337 338 340 339 337 336 341 345 342 337 334 330 324 321 319 317 315 312 308 305 304 299 291 286 286 290 291 283 273 269 274 279 279 274 270 273 278 278 276 266 251 235 222 212 205 198 187 179 176 175 172 171 174 177 180 188 198 206 214 223 236 250 262 269 276 288 300 307 310 310 309 313
334 331 328 330 334 333 330 329 330 332 336 340 342 342 341 340 338 335 334 337 339 338 338 341 340 337 334 331 326 321 315 310 308 307 303 293 284 283 285 286 282 276 276 280 284 283 277 271 271 273 272 271 266 256 241 226 212 200 192 188 186 184 181 177 178 183 185 189 196 201 206 215 224 234 245 257 269 282 296 305 308 307 305 307 314
330 327 325 328 332 331 326 328 333 333 333 336 339 341 343 344 343 340 336 335 337 340 344 348 349 345 342 340 333 321 311 304 302 304 302 295 287 286 287 287 284 280 279 281 282 279 276 279 286 281 272 270 265 253 236 219 204 194 190 189 189 187 185 185 188 188 184 184 190 195 201 218 229 235 243 255 272 288 299 305 305 303 304 310 315
327 328 328 330 332 331 325 325 332 333 333 335 338 339 342 343 342 340 338 339 342 345 345 347 350 350 350 351 349 342 330 316 306 305 304 298 292 291 291 292 292 287 281 276 273 272 273 283 292 285 275 269 259 240 220 202 192 188 187 185 185 186 188 187 184 177 172 171 174 182 201 216 224 234 245 259 280 294 300 301 299 294 298 313 325
328 331 333 333 334 331 324 324 333 339 339 339 340 340 339 338 340 343 345 347 350 350 346 345 352 359 358 355 355 356 355 348 335 324 320 321 320 313 306 305 311 310 298 283 270 267 274 281 280 275 270 259 237 217 200 188 183 182 182 181 181 184 184 178 171 166 163 158 154 176 204 213 216 227 245 268 286 293 298 304 311 321 333 340 359
331 333 333 334 335 333 324 321 329 335 336 338 343 345 342 343 347 353 353 350 352 356 355 354 1 8 4 357 355 357 2 8 11 9 7 8 7 2 353 346 352 347 327 298 268 262 276 280 274 267 255 232 208 192 182 175 175 177 178 180 181 179 173 168 164 160 151 143 155 186 202 206 209 222 249 275 285 292 306 328 331 338 24 45 33
332 330 332 334 336 334 327 320 319 325 335 346 352 349 346 351 356 356 353 351 351 355 359 0 4 6 1 355 355 358 2 12 22 24 21 18 18 22 30 37 36 28 15 2 331 277 269 265 260 252 232 207 191 183 178 176 176 179 181 181 180 174 167 162 156 146 138 143 165 183 191 197 207 228 259 279 285 295 318 327 324 42 80 61 28
328 328 333 337 336 333 329 325 322 322 331 345 351 346 346 354 357 355 353 352 351 352 357 2 4 3 0 358 360 5 12 19 23 21 18 19 23 28 33 35 32 25 16 9 5 355 289 248 243 237 220 202 192 189 187 184 181 181 181 178 174 170 162 153 143 138 144 159 171 180 190 200 218 246 272 284 289 302 319 322 137 118 92 56 23
325 330 336 339 338 333 328 326 327 324 319 331 341 340 342 353 356 353 350 349 349 354 9 17 16 15 15 11 8 10 16 23 27 21 16 19 27 32 32 25 17 11 5 360 360 7 21 182 193 197 198 193 188 186 185 182 180 178 176 172 169 163 153 143 142 149 158 165 169 177 196 212 238 264 277 282 287 297 324 140 142 127 76 52 40
327 336 341 341 341 337 327 322 322 316 304 309 331 336 337 346 351 350 350 349 351 7 31 37 32 31 33 31 30 31 32 33 37 36 27 22 25 30 32 20 6 0 3 8 14 31 95 141 147 147 151 158 163 167 170 171 171 170 164 158 154 148 139 138 148 157 163 168 173 198 237 248 259 268 269 271 274 240 158 158 160 131 38 45 51
331 339 342 344 347 343 331 323 320 314 297 285 306 330 334 337 343 350 354 356 5 34 52 50 42 38 39 38 37 38 37 36 37 39 37 33 34 39 38 10 347 348 11 46 75 106 130 141 144 144 144 149 153 157 157 153 148 143 138 134 131 128 132 145 160 171 190 222 248 272 281 270 259 258 258 254 244 213 190 191 191 153 54 40 53
335 339 341 346 352 352 341 329 324 321 307 277 281 319 332 335 343 351 356 3 30 60 59 50 42 38 35 31 30 31 33 34 36 37 36 38 45 54 60 49 324 313 306 282 236 189 168 163 162 160 154 150 146 142 138 134 132 130 125 119 118 133 152 167 186 207 233 253 264 271 271 259 246 245 244 233 223 220 216 190 140 83 32 36 57
333 338 342 348 355 358 352 340 333 334 347 337 301 325 337 340 346 352 355 9 60 72 59 46 40 34 29 26 25 25 27 32 36 37 36 39 46 51 53 53 11 311 306 292 254 228 197 177 165 154 143 136 134 132 131 130 129 127 123 124 137 162 179 195 217 233 245 254 257 250 246 242 236 233 225 207 198 200 178 128 83 56 55 67 62
329 337 343 349 356 0 359 353 348 359 43 57 11 342 341 342 347 352 357 27 81 73 55 45 38 30 26 27 26 24 26 33 39 41 41 44 50 52 51 53 52 22 65 93 102 114 127 131 129 126 122 118 114 112 111 113 120 128 134 145 161 181 198 215 229 237 237 236 234 229 229 227 220 208 186 168 167 174 168 128 75 53 59 82 78
316 332 342 349 356 358 357 357 359 13 54 72 22 333 335 345 350 352 1 63 84 64 49 44 38 31 29 30 30 30 33 38 45 50 50 50 53 56 60 69 81 84 81 84 89 96 104 109 109 105 99 95 94 98 101 111 127 141 150 157 165 179 195 205 210 208 201 197 197 197 195 190 180 169 159 158 164 167 70 74 68 54 53 69 75
291 321 338 350 360 359 353 356 5 14 37 76 48 340 332 342 347 351 24 80 72 54 45 45 43 38 34 34 38 43 46 47 51 58 59 58 59 62 66 72 79 82 82 84 87 91 93 93 91 89 89 90 95 101 108 117 130 146 156 156 154 160 166 163 158 155 154 150 149 153 156 156 156 157 157 161 168 145 49 57 60 50 45 53 58
272 303 325 344 2 5 357 356 6 11 12 27 33 344 329 336 351 40 96 90 72 59 55 55 51 45 41 43 49 53 54 53 56 60 63 66 67 68 69 72 76 78 81 85 88 90 90 88 86 87 90 95 98 103 106 109 111 118 129 137 140 142 140 137 135 137 137 134 134 136 139 141 148 157 163 166 168 76 36 42 47 43 37 41 45
Height
1518 1519 1521 1523 1525 1528 1530 1532 1533 1535 1536 1537 1538 1539 1540 1541 1541 1542 1542 1542 1543 1543 1543 1543 1543 1543 1544 1545 1545 1546 1546 1546 1547 1547 1547 1548 1548 1549 1550 1551 1552 1553 1554 1555 1556 1557 1558 1558 1559 1560 1561 1562 1563 1564 1566 1567 1569 1570 1570 1571 1572 1572 1573 1574 1575 1575 1576 1577 1578 1578 1579 1579 1580 1580 1580 1580 1581 1581 1581 1581 1581 1581 1581 1581 1580
1518 1520 1522 1523 1525 1527 1529 1531 1532 1534 1535 1536 1537 1538 1539 1540 1541 1542 1542 1542 1543 1543 1543 1544 1544 1544 1544 1545 1546 1546 1547 1547 1548 1548 1548 1548 1549 1550 1551 1551 1552 1554 1555 1556 1556 1557 1558 1559 1559 1560 1561 1562 1563 1565 1566 1567 1568 1569 1570 1570 1571 1572 1573 1573 1574 1575 1576 1576 1577 1577 1578 1578 1579 1579 1579 1580 1580 1580 1581 1581 1581 1581 1581 1581 1580
1519 1520 1522 1523 1524 1526 1528 1530 1532 1533 1534 1535 1536 1537 1539 1540 1541 1541 1542 1542 1543 1543 1544 1544 1544 1544 1545 1545 1546 1547 1547 1548 1548 1549 1549 1549 1550 1550 1551 1552 1553 1554 1555 1556 1557 1557 1558 1559 1559 1561 1562 1563 1564 1565 1566 1567 1568 1569 1569 1569 1570 1571 1572 1573 1574 1575 1575 1576 1576 1576 1577 1577 1578 1578 1579 1579 1579 1580 1580 1580 1581 1580 1580 1580 1580
1520 1521 1522 1523 1524 1525 1527 1529 1530 1532 1533 1534 1535 1537 1538 1539 1540 1541 1541 1542 1542 1543 1544 1544 1544 1545 1545 1546 1547 1547 1548 1548 1549 1549 1550 1550 1550 1551 1551 1552 1553 1554 1555 1556 1556 1557 1558 1559 1560 1561 1562 1563 1564 1565 1566 1567 1567 1568 1568 1569 1570 1570 1571 1572 1573 1574 1574 1575 1575 1575 1576 1576 1577 1577 1578 1578 1578 1579 1579 1579 1580 1580 1580 1579 1579
1521 1522 1523 1524 1525 1527 1528 1529 1530 1531 1533 1534 1535 1536 1538 1539 1540 1540 1541 1542 1542 1543 1544 1544 1545 1545 1546 1547 1547 1548 1548 1549 1549 1550 1550 1550 1551 1551 1552 1553 1554 1554 1555 1556 1557 1557 1558 1559 1560 1561 1562 1563 1564 1565 1566 1566 1567 1567 1568 1568 1569 1570 1570 1571 1572 1573 1573 1574 1574 1574 1575 1575 1575 1576 1576 1576 1577 1577 1578 1578 1578 1579 1578 1578 1577
1519 1522 1524 1525 1527 1528 1530 1531 1530 1531 1532 1533 1535 1536 1538 1539 1540 1540 1541 1542 1542 1543 1544 1544 1545 1546 1547 1547 1548 1548 1549 1549 1550 1550 1551 1551 1551 1552 1552 1553 1554 1555 1556 1556 1557 1558 1559 1560 1561 1561 1562 1563 1564 1565 1565 1566 1566 1567 1568 1568 1569 1569 1570 1571 1572 1572 1572 1573 1573 1573 1573 1574 1574 1574 1575 1575 1575 1576 1576 1577 1577 1577 1577 1576 1576
1517 1520 1522 1524 1525 1526 1529 1531 1531 1531 1532 1533 1534 1536 1537 1539 1540 1540 1541 1542 1543 1543 1544 1545 1545 1546 1547 1548 1549 1549 1550 1550 1551 1551 1551 1552 1552 1553 1553 1554 1554 1555 1556 1557 1558 1559 1559 1560 1561 1562 1562 1563 1564 1565 1565 1566 1566 1567 1568 1568 1569 1569 1570 1571 1571 1571 1572 1572 1572 1572 1572 1573 1573 1573 1574 1574 1574 1574 1575 1575 1575 1575 1575 1575 1575
1517 1519 1520 1522 1524 1525 1528 1530 1531 1531 1532 1533 1534 1536 1537 1539 1540 1541 1542 1542 1543 1544 1544 1545 1545 1546 1547 1548 1549 1550 1550 1551 1551 1552 1552 1553 1553 1554 1554 1555 1555 1556 1556 1557 1558 1559 1559 1560 1561 1562 1562 1563 1564 1564 1565 1565 1566 1567 1567 1568 1568 1569 1569 1569 1569 1570 1570 1570 1571 1571 1571 1572 1572 1572 1573 1573 1573 1573 1573 1573 1573 1573 1574 1574 1573
1517 1518 1519 1520 1523 1525 1528 1530 1530 1531 1532 1533 1534 1535 1537 1538 1540 1541 1542 1543 1544 1545 1545 1546 1546 1546 1547 1548 1549 1550 1551 1552 1552 1553 1553 1553 1554 1554 1555 1555 1555 1556 1557 1557 1558 1558 1559 1560 1560 1561 1562 1562 1563 1564 1564 1564 1565 1565 1566 1567 1567 1568 1568 1568 1568 1568 1568 1569 1569 1569 1570 1570 1570 1570 1571 1571 1571 1571 1572 1572 1572 1572 1572 1571 1571
1515 1516 1517 1520 1523 1525 1527 1529 1530 1531 1532 1532 1533 1534 1536 1538 1540 1541 1542 1543 1544 1545 1545 1546 1546 1547 1547 1548 1549 1550 1551 1552 1552 1553 1554 1554 1555 1555 1555 1555 1556 1556 1557 1557 1558 1558 1559 1559 1560 1561 1561 1562 1562 1563 1563 1563 1564 1564 1565 1565 1566 1567 1567 1567 1567 1567 1567 1567 1567 1568 1568 1568 1568 1568 1569 1569 1569 1570 1570 1570 1570 1570 1570 1569 1569
1514 1516 1517 1519 1522 1524 1526 1528 1529 1530 1531 1532 1533 1534 1535 1536 1539 1541 1542 1543 1544 1544 1545 1545 1546 1546 1547 1548 1549 1550 1551 1552 1552 1553 1554 1554 1555 1555 1555 1556 1556 1556 1557 1557 1557 1558 1558 1559 1559 1560 1560 1561 1561 1562 1562 1563 1563 1563 1563 1564 1564 1565 1565 1566 1566 1566 1566 1565 1566 1566 1566 1566 1566 1566 1567 1567 1567 1568 1568 1568 1568 1568 1568 1567 1567
1515 1516 1517 1519 1521 1523 1525 1527 1528 1530 1531 1531 1532 1533 1533 1535 1538 1540 1542 1543 1543 1544 1544 1545 1545 1546 1547 1548 1548 1549 1550 1551 1552 1553 1553 1554 1554 1555 1555 1555 1555 1556 1556 1556 1557 1557 1557 1558 1558 1559 1559 1560 1560 1560 1561 1561 1561 1562 1562 1562 1562 1563 1563 1564 1564 1564 1564 1564 1564 1564 1564 1564 1564 1564 1564 1565 1565 1566 1566 1566 1566 1565 1565 1565 1565
1515 1516 1518 1519 1521 1523 1525 1526 1528 1529 1530 1531 1531 1532 1533 1534 1536 1538 1540 1542 1542 1543 1543 1543 1544 1545 1546 1547 1547 1548 1549 1550 1551 1552 1552 1553 1553 1554 1554 1554 1554 1555 1555 1555 1555 1556 1556 1556 1556 1557 1557 1558 1558 1558 1559 1559 1559 1560 1560 1560 1560 1561 1561 1562 1562 1562 1562 1562 1562 1562 1562 1562 1562 1562 1563 1563 1563 1563 1563 1563 1563 1563 1563 1563 1563
1514 1515 1517 1519 1520 1522 1524 1525 1526 1528 1530 1531 1531 1532 1533 1534 1535 1537 1539 1541 1541 1542 1542 1542 1543 1544 1544 1545 1546 1547 1548 1549 1550 1551 1551 1552 1552 1552 1552 1553 1553 1553 1553 1553 1553 1553 1554 1554 1554 1554 1555 1555 1555 1555 1555 1556 1556 1557 1557 1557 1558 1558 1559 1559 1559 1559 1560 1560 1560 1560 1560 1560 1560 1560 1561 1561 1561 1560 1560 1560 1560 1561 1561 1561 1560
1514 1516 1518 1519 1521 1522 1524 1525 1525 1527 1529 1530 1531 1532 1532 1533 1535 1537 1539 1539 1540 1541 1541 1542 1542 1542 1543 1543 1544 1545 1546 1547 1548 1549 1549 1550 1550 1550 1550 1550 1551 1551 1551 1551 1551 1551 1551 1551 1551 1552 1552 1552 1552 1552 1552 1552 1553 1554 1554 1554 1555 1555 1555 1556 1556 1556 1557 1557 1557 1557 1557 1557 1557 1558 1558 1558 1558 1558 1558 1557 1558 1558 1558 1558 1557
1516 1518 1519 1521 1523 1524 1524 1525 1526 1527 1528 1529 1529 1530 1531 1532 1533 1535 1537 1538 1539 1540 1540 1541 1541 1541 1541 1542 1542 1543 1544 1545 1545 1546 1547 1547 1547 1548 1548 1548 1548 1547 1547 1548 1548 1548 1548 1548 1548 1549 1549 1549 1550 1550 1550 1550 1550 1551 1551 1552 1552 1552 1552 1553 1552 1552 1554 1555 1554 1554 1554 1554 1554 1555 1555 1555 1555 1555 1555 1555 1555 1555 1555 1555 1555
1520 1521 1522 1523 1524 1525 1526 1526 1527 1527 1528 1528 1529 1529 1531 1532 1532 1534 1535 1536 1537 1538 1539 1539 1540 1540 1540 1540 1541 1541 1542 1543 1543 1543 1543 1543 1543 1544 1544 1544 1544 1544 1544 1544 1544 1544 1544 1545 1545 1545 1545 1546 1547 1547 1547 1547 1547 1547 1548 1548 1549 1549 1549 1549 1549 1549 1551 1552 1551 1551 1551 1551 1551 1552 1552 1552 1552 1553 1553 1552 1552 1553 1553 1553 1552
1524 1524 1525 1526 1527 1527 1528 1528 1528 1528 1529 1529 1529 1530 1531 1531 1532 1533 1534 1535 1536 1537 1537 1538 1538 1539 1539 1539 1539 1540 1540 1541 1540 1540 1540 1540 1539 1539 1539 1539 1540 1540 1540 1540 1540 1540 1540 1541 1541 1541 1541 1542 1544 1545 1544 1544 1543 1543 1543 1544 1545 1545 1545 1545 1545 1545 1547 1548 1548 1548 1548 1548 1548 1549 1549 1549 1550 1550 1550 1550 1550 1550 1550 1550 1550
1527 1527 1527 1528 1528 1529 1529 1530 1530 1530 1530 1531 1531 1531 1532 1532 1533 1533 1534 1534 1535 1535 1536 1537 1537 1538 1538 1538 1538 1538 1538 1538 1538 1538 1538 1538 1537 1536 1536 1535 1535 1536 1536 1536 1536 1536 1537 1537 1537 1537 1537 1537 1539 1541 1541 1540 1538 1538 1539 1539 1539 1540 1541 1541 1541 1542 1543 1544 1545 1545 1545 1545 1545 1545 1545 1546 1546 1547 1547 1547 1547 1547 1547 1548 1548
1529 1528 1528 1529 1529 1530 1530 1531 1531 1531 1531 1531 1532 1533 1533 1533 1534 1534 1534 1534 1534 1534 1535 1535 1536 1536 1536 1535 1535 1535 1535 1536 1536 1536 1535 1535 1534 1533 1533 1532 1532 1532 1532 1532 1532 1532 1532 1533 1533 1533 1533 1533 1534 1536 1536 1535 1534 1533 1534 1535 1535 1536 1537 1538 1538 1539 1539 1540 1541 1541 1541 1541 1541 1542 1542 1542 1543 1544 1545 1545 1545 1546 1546 1546 1545
1529 1529 1529 1529 1529 1530 1530 1530 1531 1530 1530 1531 1531 1532 1532 1533 1533 1533 1533 1533 1533 1533 1533 1533 1533 1534 1533 1533 1533 1533 1532 1532 1532 1532 1532 1532 1531 1530 1529 1529 1529 1528 1528 1527 1527 1527 1528 1529 1529 1530 1530 1530 1530 1531 1531 1531 1530 1529 1529 1530 1531 1532 1534 1534 1535 1536 1536 1536 1536 1537 1537 1537 1538 1539 1539 1540 1541 1542 1543 1543 1544 1543 1543 1543 1542
1529 1529 1529 1529 1529 1529 1529 1529 1529 1529 1529 1529 1529 1530 1530 1531 1531 1531 1531 1530 1530 1530 1530 1530 1530 1530 1530 1530 1530 1529 1529 1529 1529 1529 1528 1528 1528 1527 1526 1525 1525 1525 1524 1523 1523 1523 1523 1524 1525 1526 1527 1526 1527 1527 1527 1527 1527 1525 1525 1527 1528 1529 1530 1530 1531 1532 1532 1532 1533 1534 1534 1535 1535 1536 1537 1538 1539 1540 1541 1541 1541 1541 1540 1540 1539
1529 1529 1529 1529 1528 1528 1528 1528 1528 1528 1527 1527 1527 1527 1528 1528 1529 1528 1528 1527 1527 1526 1526 1525 1525 1525 1526 1526 1526 1526 1525 1525 1525 1524 1524 1524 1524 1523 1522 1521 1521 1521 1519 1519 1519 1519 1520 1520 1520 1521 1522 1522 1522 1522 1522 1522 1522 1522 1522 1524 1525 1526 1526 1527 1528 1528 1528 1529 1530 1531 1531 1532 1533 1533 1535 1536 1537 1538 1538 1538 1538 1538 1538 1537 1537
1530 1529 1528 1528 1527 1527 1527 1527 1526 1526 1526 1526 1526 1525 1525 1525 1525 1525 1524 1524 1523 1522 1521 1521 1521 1520 1520 1520 1521 1521 1521 1520 1520 1520 1520 1519 1519 1518 1518 1517 1516 1516 1515 1514 1514 1515 1515 1516 1516 1516 1516 1516 1517 1518 1518 1518 1518 1519 1519 1520 1521 1521 1521 1522 1524 1525 1525 1526 1527 1528 1529 1530 1531 1532 1534 1535 1535 1535 1535 1535 1535 1535 1535 1535 1535
1529 1528 1527 1526 1526 1525 1525 1525 1524 1524 1524 1523 1523 1523 1523 1522 1522 1522 1521 1520 1519 1518 1518 1517 1517 1516 1515 1515 1515 1515 1515 1515 1515 1515 1515 1514 1513 1513 1512 1512 1512 1511 1510 1510 1510 1509 1510 1510 1511 1511 1510 1511 1511 1512 1513 1513 1514 1515 1516 1516 1517 1517 1517 1518 1520 1521 1521 1522 1524 1526 1527 1529 1530 1531 1532 1533 1533 1533 1533 1533 1533 1533 1533 1533 1532
1527 1526 1525 1524 1524 1524 1523 1523 1522 1522 1522 1521 1521 1520 1520 1519 1519 1518 1518 1517 1516 1515 1514 1513 1513 1512 1511 1510 1510 1510 1510 1510 1510 1510 1509 1508 1508 1507 1507 1507 1507 1506 1505 1505 1504 1504 1504 1505 1505 1506 1506 1506 1506 1507 1508 1509 1510 1511 1511 1512 1512 1513 1514 1515 1516 1517 1519 1521 1523 1525 1526 1528 1528 1529 1530 1530 1530 1530 1531 1531 1531 1531 1532 1531 1531
1524 1524 1523 1522 1522 1521 1521 1521 1520 1520 1519 1519 1519 1518 1517 1516 1516 1515 1514 1513 1513 1512 1511 1510 1509 1508 1507 1506 1506 1505 1505 1505 1505 1505 1504 1503 1503 1502 1502 1502 1502 1501 1501 1500 1499 1499 1499 1499 1499 1500 1501 1501 1502 1502 1504 1505 1506 1506 1507 1508 1508 1509 1510 1511 1512 1514 1517 1520 1522 1524 1525 1526 1527 1527 1528 1527 1527 1528 1529 1529 1529 1530 1530 1529 1528
1523 1522 1522 1521 1520 1520 1519 1518 1518 1517 1517 1516 1516 1515 1515 1514 1513 1512 1512 1511 1510 1509 1508 1507 1506 1505 1504 1503 1502 1501 1501 1501 1501 1501 1500 1499 1498 1498 1497 1497 1497 1497 1496 1496 1495 1494 1494 1494 1494 1494 1495 1496 1497 1498 1500 1501 1502 1503 1503 1503 1504 1505 1507 1509 1511 1513 1516 1518 1520 1521 1523 1524 1525 1526 1526 1526 1525 1526 1527 1527 1527 1528 1528 1527 1526
1523 1522 1521 1520 1519 1519 1518 1517 1516 1515 1515 1514 1514 1513 1512 1511 1510 1510 1510 1509 1508 1506 1505 1504 1503 1502 1501 1500 1499 1497 1496 1497 1497 1497 1496 1496 1495 1494 1493 1493 1493 1493 1493 1492 1491 1490 1490 1489 1489 1490 1491 1491 1492 1493 1495 1497 1498 1499 1499 1499 1500 1502 1503 1506 1508 1511 1514 1516 1518 1519 1520 1522 1523 1524 1524 1524 1524 1524 1525 1525 1526 1526 1526 1525 1524
1523 1522 1521 1520 1519 1518 1517 1516 1515 1514 1513 1512 1511 1511 1511 1510 1509 1508 1507 1507 1506 1504 1503 1502 1501 1500 1498 1497 1497 1495 1493 1492 1492 1492 1492 1492 1491 1491 1490 1490 1489 1489 1489 1489 1488 1487 1486 1486 1486 1486 1486 1486 1487 1488 1491 1493 1494 1494 1494 1495 1496 1498 1501 1503 1506 1509 1512 1514 1516 1517 1519 1520 1521 1522 1522 1522 1522 1522 1523 1524 1524 1524 1524 1523 1522
1522 1521 1521 1520 1519 1518 1517 1515 1514 1513 1512 1511 1510 1509 1508 1508 1508 1507 1506 1504 1504 1503 1501 1500 1499 1498 1497 1495 1494 1492 1491 1490 1489 1489 1489 1489 1488 1487 1487 1486 1485 1486 1486 1486 1485 1484 1483 1483 1483 1483 1482 1482 1482 1484 1486 1488 1489 1489 1490 1491 1493 1496 1498 1500 1504 1507 1509 1511 1514 1516 1517 1518 1519 1520 1520 1520 1520 1521 1522 1522 1522 1522 1522 1521 1520
1522 1521 1521 1520 1519 1518 1516 1515 1514 1513 1512 1510 1509 1508 1506 1506 1506 1506 1505 1503 1502 1500 1499 1498 1497 1496 1495 1493 1491 1489 1488 1488 1487 1487 1486 1486 1485 1484 1483 1482 1482 1483 1483 1482 1481 1481 1481 1481 1481 1480 1480 1479 1479 1479 1481 1483 1486 1487 1488 1488 1489 1493 1496 1498 1502 1505 1507 1509 1512 1514 1515 1516 1518 1518 1518 1519 1519 1520 1521 1521 1520 1520 1520 1519 1519
1523 1522 1521 1520 1519 1518 1517 1515 1514 1513 1511 1509 1508 1507 1505 1504 1502 1502 1501 1501 1500 1498 1497 1496 1494 1493 1491 1490 1488 1487 1486 1485 1484 1484 1483 1483 1482 1481 1480 1479 1479 1480 1480 1480 1479 1478 1478 1478 1478 1478 1478 1477 1477 1477 1478 1481 1483 1486 1486 1486 1487 1490 1494 1497 1500 1503 1505 1508 1510 1512 1513 1515 1516 1516 1517 1517 1518 1519 1519 1519 1519 1519 1518 1518 1517
1523 1522 1521 1520 1519 1518 1516 1515 1513 1512 1510 1508 1507 1506 1505 1503 1502 1500 1498 1497 1497 1496 1495 1494 1492 1491 1489 1488 1486 1485 1484 1483 1482 1481 1480 1479 1479 1479 1478 1477 1477 1477 1478 1477 1477 1476 1476 1476 1476 1476 1476 1476 1476 1477 1478 1481 1484 1487 1489 1490 1491 1493 1494 1497 1499 1501 1504 1506 1508 1510 1511 1512 1513 1514 1515 1516 1517 1518 1518 1518 1518 1517 1517 1517 1516
1523 1522 1521 1520 1519 1517 1516 1514 1513 1511 1509 1508 1507 1506 1505 1503 1502 1500 1498 1497 1495 1494 1493 1492 1491 1489 1487 1485 1484 1483 1482 1480 1479 1478 1477 1477 1477 1476 1476 1475 1475 1475 1475 1475 1475 1474 1474 1474 1474 1474 1474 1475 1476 1477 1478 1481 1484 1487 1490 1493 1495 1496 1496 1497 1499 1501 1503 1505 1507 1508 1509 1511 1512 1512 1514 1515 1516 1517 1517 1517 1516 1516 1516 1515 1515
1523 1522 1521 1520 1518 1517 1515 1514 1512 1511 1509 1508 1507 1506 1505 1503 1502 1500 1499 1498 1496 1494 1492 1490 1489 1488 1486 1485 1483 1482 1480 1478 1477 1476 1476 1475 1475 1474 1474 1474 1473 1473 1473 1473 1473 1472 1472 1472 1473 1473 1474 1474 1475 1476 1478 1480 1483 1486 1489 1492 1494 1496 1497 1498 1499 1500 1502 1504 1505 1507 1508 1509 1510 1511 1512 1513 1515 1516 1516 1515 1515 1514 1514 1514 1513
1522 1521 1520 1519 1517 1516 1514 1513 1512 1511 1509 1508 1507 1505 1504 1503 1502 1501 1499 1498 1496 1494 1492 1490 1488 1487 1486 1485 1482 1480 1478 1477 1476 1475 1475 1474 1474 1473 1473 1472 1471 1471 1471 1471 1471 1470 1470 1471 1472 1473 1473 1473 1474 1475 1477 1479 1482 1485 1488 1490 1493 1494 1496 1497 1498 1500 1501 1502 1503 1505 1507 1508 1509 1510 1511 1513 1514 1515 1514 1514 1513 1513 1513 1513 1512
1521 1520 1519 1518 1516 1515 1513 1512 1511 1510 1509 1507 1506 1505 1504 1503 1502 1501 1499 1497 1496 1494 1492 1491 1489 1488 1486 1484 1481 1479 1477 1476 1475 1475 1474 1473 1473 1472 1471 1470 1470 1469 1469 1469 1469 1468 1469 1470 1470 1471 1472 1472 1473 1475 1477 1479 1481 1484 1487 1490 1491 1493 1494 1495 1497 1498 1499 1500 1502 1504 1506 1508 1509 1510 1511 1513 1514 1514 1514 1513 1512 1512 1512 1512 1511
1520 1519 1518 1517 1515 1513 1512 1511 1511 1509 1508 1507 1506 1505 1504 1503 1502 1501 1499 1498 1496 1495 1493 1492 1490 1489 1487 1485 1482 1479 1477 1476 1475 1474 1474 1473 1472 1471 1470 1469 1469 1468 1468 1467 1467 1467 1468 1468 1469 1470 1471 1471 1473 1475 1477 1480 1482 1484 1487 1488 1489 1491 1492 1494 1495 1496 1497 1499 1502 1505 1507 1508 1509 1510 1511 1512 1513 1513 1513 1512 1512 1512 1512 1512 1511
1519 1518 1517 1516 1514 1513 1512 1511 1510 1509 1508 1507 1506 1505 1504 1503 1502 1501 1499 1498 1497 1495 1494 1492 1491 1489 1488 1486 1483 1481 1479 1478 1476 1475 1475 1474 1472 1471 1470 1469 1468 1468 1467 1467 1466 1466 1467 1467 1468 1469 1470 1471 1473 1475 1478 1480 1482 1484 1486 1488 1489 1490 1492 1492 1493 1495 1497 1499 1502 1505 1507 1507 1509 1510 1511 1512 1512 1512 1511 1511 1511 1512 1512 1511 1510
1518 1517 1516 1515 1513 1512 1511 1511 1510 1509 1508 1507 1506 1505 1504 1504 1502 1501 1500 1498 1497 1496 1494 1493 1492 1490 1488 1487 1484 1482 1481 1479 1478 1477 1476 1475 1473 1472 1471 1470 1469 1468 1467 1466 1466 1466 1466 1467 1468 1469 1470 1472 1474 1476 1478 1480 1481 1483 1486 1487 1489 1490 1491 1492 1493 1495 1497 1500 1503 1505 1506 1508 1509 1510 1511 1511 1511 1511 1511 1511 1511 1512 1511 1511 1509
1517 1517 1515 1514 1512 1511 1511 1510 1510 1509 1508 1507 1506 1505 1505 1504 1503 1501 1500 1498 1497 1495 1494 1493 1492 1490 1488 1487 1485 1483 1482 1481 1479 1478 1477 1476 1475 1473 1473 1472 1470 1469 1468 1467 1467 1467 1467 1467 1468 1469 1470 1472 1473 1475 1477 1479 1481 1483 1485 1487 1489 1490 1491 1492 1494 1496 1498 1501 1504 1505 1506 1508 1509 1510 1510 1510 1510 1510 1511 1511 1512 1511 1511 1510 1508
1517 1516 1515 1513 1512 1511 1510 1509 1509 1508 1508 1507 1506 1506 1505 1504 1503 1501 1500 1498 1496 1495 1494 1493 1492 1490 1488 1487 1485 1484 1482 1481 1480 1479 1478 1477 1476 1475 1474 1473 1472 1471 1470 1469 1468 1468 1468 1468 1469 1470 1471 1472 1474 1476 1478 1480 1482 1484 1486 1488 1489 1491 1492 1493 1495 1498 1500 1503 1504 1505 1506 1507 1508 1509 1509 1509 1510 1511 1511 1512 1512 1511 1510 1508 1507
1516 1515 1514 1513 1511 1510 1509 1509 1508 1508 1507 1507 1506 1505 1505 1504 1503 1501 1500 1498 1496 1495 1494 1493 1492 1491 1489 1488 1486 1484 1483 1481 1480 1480 1479 1478 1477 1476 1476 1475 1474 1473 1472 1471 1470 1470 1470 1470 1471 1472 1473 1474 1476 1478 1480 1482 1484 1486 1487 1489 1490 1492 1493 1495 1497 1499 1502 1503 1504 1505 1506 1507 1507 1508 1508 1509 1510 1511 1512 1512 1511 1510 1509 1507 1506
1516 1515 1513 1512 1511 1510 1509 1508 1507 1506 1506 1506 1506 1505 1505 1504 1503 1501 1499 1497 1496 1495 1494 1494 1493 1492 1491 1489 1488 1486 1484 1483 1481 1481 1480 1479 1478 1478 1477 1477 1476 1476 1475 1474 1474 1473 1474 1474 1474 1475 1476 1477 1479 1481 1482 1484 1486 1488 1489 1491 1492 1493 1495 1496 1498 1500 1502 1503 1504 1505 1505 1506 1507 1508 1509 1510 1510 1511 1511 1511 1511 1509 1508 1506 1505
1515 1514 1513 1512 1510 1509 1508 1507 1506 1505 1504 1504 1505 1505 1504 1504 1503 1501 1499 1498 1496 1495 1495 1495 1494 1493 1492 1491 1489 1488 1486 1484 1483 1482 1481 1480 1479 1478 1478 1478 1478 1477 1477 1477 1477 1477 1477 1477 1478 1479 1480 1481 1482 1483 1485 1486 1488 1489 1491 1492 1494 1495 1496 1498 1499 1501 1502 1503 1503 1504 1505 1506 1507 1508 1509 1510 1510 1511 1511 1511 1510 1509 1507 1505 1504
1515 1514 1513 1511 1510 1509 1508 1506 1505 1504 1503 1504 1504 1504 1504 1503 1503 1501 1500 1498 1497 1496 1496 1496 1495 1494 1493 1492 1490 1489 1487 1486 1484 1483 1482 1480 1480 1479 1479 1479 1479 1479 1479 1479 1478 1479 1479 1480 1481 1482 1483 1484 1485 1486 1487 1489 1490 1491 1492 1493 1495 1497 1498 1499 1500 1501 1502 1502 1503 1504 1505 1506 1507 1508 1509 1510 1510 1511 1511 1510 1509 1508 1506 1504 1503
1514 1514 1513 1511 1510 1509 1508 1506 1505 1504 1504 1504 1504 1504 1504 1503 1503 1501 1500 1499 1498 1497 1497 1497 1496 1495 1495 1493 1492 1491 1489 1488 1486 1485 1484 1482 1481 1480 1480 1481 1481 1481 1481 1480 1480 1481 1482 1483 1484 1485 1486 1487 1488 1489 1490 1491 1492 1492 1493 1495 1496 1498 1498 1499 1500 1501 1502 1502 1503 1504 1505 1506 1507 1509 1509 1510 1510 1510 1510 1509 1508 1506 1505 1504 1503
1514 1513 1512 1511 1510 1509 1508 1507 1505 1504 1504 1504 1504 1504 1504 1503 1503 1501 1501 1500 1499 1498 1498 1498 1497 1497 1496 1495 1494 1493 1491 1490 1489 1488 1487 1485 1484 1483 1483 1483 1483 1483 1484 1484 1484 1485 1485 1486 1487 1488 1489 1490 1491 1491 1492 1493 1493 1494 1495 1496 1497 1498 1498 1499 1500 1501 1502 1503 1503 1504 1506 1507 1508 1509 1509 1510 1510 1509 1509 1508 1507 1506 1505 1504 1503
1513 1513 1512 1511 1510 1509 1508 1507 1506 1505 1505 1504 1504 1504 1504 1503 1503 1502 1501 1501 1500 1500 1499 1499 1499 1498 1497 1497 1496 1495 1494 1493 1492 1491 1490 1489 1488 1488 1487 1487 1487 1487 1487 1487 1488 1488 1489 1490 1490 1491 1492 1492 1493 1493 1494 1494 1495 1496 1496 1497 1497 1498 1499 1500 1500 1502 1503 1504 1505 1506 1507 1508 1508 1509 1509 1509 1508 1508 1508 1507 1506 1506 1505 1504 1504
1513 1512 1512 1511 1510 1509 1508 1507 1506 1506 1505 1505 1504 1504 1504 1503 1503 1502 1502 1502 1501 1501 1501 1500 1500 1499 1499 1498 1497 1497 1496 1495 1494 1494 1493 1492 1492 1492 1491 1491 1491 1491 1491 1491 1491 1492 1492 1492 1493 1493 1494 1494 1494 1495 1495 1496 1496 1497 1498 1498 1499 1499 1500 1501 1502 1503 1504 1506 1506 1507 1508 1508 1508 1508 1508 1508 1508 1507 1507 1507 1506 1506 1505 1505 1505